Lid_Strength_Index
1 5 3 5 10 11 15 13 11 10 10 8 7 8 9 8 10 12 2 1 0 0 -0 -1 -1 -2 -2 -2 -2 -2 -2 -2 -2 -2 -2 -2 -2 -2 -2 -2 -3 -3 -2 -2 -2 -2 -2 -2 -2
3 3 5 8 12 16 14 11 11 10 8 7 6 8 9 11 6 4 3 1 0 -0 -0 -0 -1 -2 -2 -1 -2 -2 -2 -2 -2 -2 -2 -2 -2 -2 -2 -2 -3 -2 -2 -2 -2 -2 -2 -2 -2
5 4 7 10 13 15 14 11 10 10 7 8 8 7 8 9 5 4 2 1 -0 0 -0 -0 -1 -1 -2 -2 -2 -2 -2 -2 -2 -2 -2 -2 -2 -2 -2 -2 -2 -2 -2 -2 -2 -2 -2 -2 -2
7 5 8 12 15 12 11 10 9 9 8 7 7 9 6 4 4 3 1 -0 0 0 0 -0 -1 -1 -2 -2 -2 -2 -2 -2 -2 -2 -2 -2 -2 -3 -2 -2 -2 -2 -2 -2 -2 -2 -2 -2 -2
7 7 11 14 13 11 10 10 8 9 8 8 8 10 9 4 3 2 1 0 0 0 0 -0 -1 -1 -1 -2 -2 -2 -2 -2 -2 -2 -3 -3 -3 -2 -3 -2 -2 -2 -2 -2 -2 -1 -1 -1 -1
10 9 13 15 13 12 10 10 10 9 8 8 9 9 9 4 3 2 1 1 -0 0 0 -0 1 -0 -1 -1 -2 -2 -2 -2 -2 -2 -2 -3 -2 -2 -2 -2 -2 -2 -1 -1 -1 -1 -1 -1 -1
11 11 13 14 13 12 10 9 9 9 8 8 6 10 8 6 3 2 1 0 -0 -0 -0 -0 0 0 1 -0 -1 -1 -2 -2 -2 -2 -2 -2 -2 -2 -2 -2 -2 -1 -1 -1 -1 -1 -1 -1 -1
10 11 13 13 13 12 10 8 9 8 8 5 5 10 10 6 3 2 1 1 0 -0 -0 -0 0 0 0 0 1 -0 -1 -1 -2 -2 -1 -1 -1 -2 -2 -1 -2 -2 -1 -1 -1 -1 -1 -1 -1
9 12 13 12 12 11 10 9 9 8 8 7 6 7 5 4 3 2 2 2 1 1 1 -0 -0 1 1 0 1 1 0 -0 -1 -0 0 1 1 0 0 0 -2 -2 -2 -1 -1 -1 -1 -1 0
12 13 12 10 10 10 11 10 11 9 9 9 8 5 5 4 4 4 3 3 2 2 2 1 0 0 0 -0 1 1 0 1 1 1 1 1 2 2 1 1 -0 -1 -1 -2 -2 -2 -2 0 2
13 13 10 10 10 10 11 11 10 10 10 8 8 7 6 5 4 4 3 3 2 1 1 1 1 0 1 1 1 2 1 1 1 1 1 2 2 3 3 2 2 2 2 1 0 1 1 2 3
13 12 10 10 9 10 10 10 11 9 9 9 8 5 6 5 5 4 4 3 2 2 1 1 1 1 1 1 1 2 1 2 2 1 2 2 2 2 3 4 3 3 3 3 3 3 3 3 3
11 11 10 10 9 10 9 10 11 11 9 5 7 5 6 5 5 4 3 2 2 2 1 1 1 1 0 1 2 1 1 2 2 2 2 2 2 2 2 3 4 3 3 3 3 4 4 4 4
10 9 10 10 10 9 10 11 10 10 8 7 6 6 7 6 5 5 3 3 2 2 2 1 1 1 1 1 1 1 1 2 2 2 2 2 2 2 2 2 3 4 4 4 4 4 4 4 4
11 11 10 9 9 10 10 12 12 10 7 8 7 6 5 6 6 5 3 3 2 2 2 2 2 1 1 1 1 1 1 1 2 2 1 1 2 2 2 2 3 2 3 3 3 3 3 4 3
13 13 15 12 9 9 11 13 10 9 10 7 7 6 6 5 5 5 4 2 2 2 2 2 1 1 1 1 1 1 1 1 1 2 2 1 1 2 2 3 3 2 2 2 3 3 3 4 4
14 18 16 14 10 9 11 14 9 9 11 11 8 7 6 5 4 4 4 3 2 2 3 2 2 2 1 1 1 2 2 2 2 2 2 2 1 1 2 2 2 2 3 3 3 4 4 4 4
18 16 16 15 12 11 13 12 10 10 11 11 11 10 6 6 5 3 3 3 3 2 2 2 2 1 1 1 2 2 3 2 2 2 2 2 2 2 2 3 3 3 3 3 4 4 4 4 4
15 17 18 15 12 12 12 12 11 9 12 13 12 11 11 6 4 4 4 3 3 3 2 2 2 2 2 2 3 3 3 2 2 1 1 2 2 2 2 3 3 3 3 3 3 4 4 4 4
13 16 18 16 12 12 14 13 11 10 9 11 10 11 11 10 7 4 4 4 3 3 3 2 2 2 2 2 2 3 2 2 1 0 1 1 1 1 1 2 3 3 3 3 3 4 4 4 4
13 15 15 16 15 14 15 15 14 11 10 11 10 10 10 11 10 11 8 4 3 3 3 3 2 2 2 2 2 2 2 2 2 2 1 1 1 1 1 2 2 2 3 3 3 4 3 3 5
16 12 13 14 15 18 14 20 15 12 12 10 10 10 10 10 10 10 8 4 3 3 2 2 3 2 2 2 2 2 2 3 3 3 2 2 2 2 2 2 2 2 2 3 3 3 3 3 3
15 11 13 13 15 16 16 17 18 13 13 12 10 9 9 8 10 10 6 5 7 4 3 3 3 3 3 3 2 2 2 2 2 2 2 2 2 2 2 2 3 3 2 2 2 3 3 2 3
12 13 13 13 14 19 17 16 20 16 14 12 10 9 8 9 11 10 10 10 9 8 6 6 6 7 5 3 3 3 2 2 2 2 2 2 2 2 2 2 1 2 1 2 2 2 2 2 2
14 16 19 20 20 22 16 17 17 15 14 12 11 10 9 10 12 12 11 10 10 9 8 7 8 9 7 7 6 6 6 5 4 4 3 3 3 2 2 1 1 1 1 1 2 2 2 1 1
13 16 18 22 21 21 16 19 17 13 12 14 14 13 12 14 12 12 12 12 10 9 8 8 9 9 9 8 9 8 9 8 8 8 7 6 6 6 6 5 5 4 3 2 1 1 1 1 1
15 15 13 16 17 21 18 16 15 15 15 14 13 14 14 13 13 12 12 12 12 12 11 10 10 11 10 10 10 9 9 10 10 10 10 9 9 9 9 8 8 7 7 6 6 5 4 3 3
12 11 16 16 21 23 19 19 18 16 15 14 13 13 12 12 11 12 12 12 12 12 12 11 11 11 11 11 11 11 11 11 11 11 12 11 11 11 10 11 10 9 9 9 8 8 6 7 5
13 14 13 14 15 20 22 20 17 15 14 13 12 12 12 11 11 12 12 13 13 13 12 12 12 13 13 13 12 13 13 13 13 13 13 13 12 12 12 12 11 11 11 11 10 10 10 9 9
10 12 12 16 18 16 16 18 15 15 15 12 12 12 12 12 12 13 13 14 14 14 13 13 13 13 13 13 14 14 14 14 14 14 13 13 13 13 13 13 13 13 13 13 12 12 12 12 11